Welcome to the New NWS' Forecast!
Most changes are behind the scenes, but click here for differences you might notice.

Regional Weather Roundup (RWR)

Issued by Gray - Portland, ME (GYX)

                            
422 
ASUS41 KGYX 230905
RWRGYX
WEATHER ROUNDUP FOR MAINE AND NEW HAMPSHIRE
NATIONAL WEATHER SERVICE GRAY ME
400 AM EST TUE JAN 23 2018

MEZ002-005-006-010-012-015-018-020-021-024-026-027-029-231000-
MAINE
  
CITY           SKY/WX    TMP DP  RH WIND       PRES   REMARKS
PORTLAND       CLOUDY    22  21  96 N10       30.13F FOG     WCI  11  
SANFORD        MIX PCPN  22  21  96 N8        30.10F FOG              
BAR HARBOR     LGT SNOW  25  24  96 NE8       30.19F VSB 1            
WISCASSET      CLOUDY    23  23 100 MISG      30.14F FOG              
ROCKLAND       MIX PCPN  28  27  96 NE12      30.14F FOG     WCI  18  
FRYEBURG       CLOUDY    22  22 100 NE3       30.13F FOG              
LEWISTONAUBURN MIX PCPN  19  18  95 N12       30.14F FOG     WCI   7  
AUGUSTA        FRZ RAIN  19  17  92 N8        30.15F FOG              
WATERVILLE     MIX PCPN  18  16  92 NE10      30.11F FOG     WCI   6  
BANGOR         LGT SNOW  19  16  88 NE9       30.20F FOG              
GREENVILLE       N/A     15  13  91 SE12      30.07F WCI   2          
MILLINOCKET    LGT SNOW  14  11  87 NE6       30.25F VSB 3/4          
HOULTON        SNOW      13   9  84 E6        30.26F VSB 1/2          
PRESQUE ISLE   LGT SNOW  11   8  88 E3        30.27F VSB 3/4          
FRENCHVILLE    LGT SNOW   5   2  87 E5        30.22F FOG              
CARIBOU        LGT SNOW  10   6  84 NE5       30.24F VSB 3/4          
$$

NHZ002-005-008-009-011-012-014-231000-
NEW HAMPSHIRE
  
CITY           SKY/WX    TMP DP  RH WIND       PRES   REMARKS
PORTSMOUTH     FRZ DRZL  25  24  95 N3        30.07F FOG              
ROCHESTER      CLOUDY    24  23  96 N8        30.08F FOG              
NASHUA         LGT SNOW  28  28 100 N6        30.07F FOG              
MANCHESTER     FOG       27  26  96 NE7       30.06F VSB 1            
CONCORD        CLOUDY    27  24  89 NE6       30.07F FOG              
LACONIA        MIX PCPN  24  23  96 E14       30.06F FOG     WCI  12  
PLYMOUTH       CLOUDY    27  26  96 SE3       30.07F FOG              
BERLIN         CLOUDY    31  26  82 SE8       30.00F                  
WHITEFIELD     CLOUDY    41  33  73 S6        29.93F                  
JAFFREY        CLOUDY    28  28 100 VRB5      30.00F FOG              
KEENE          CLOUDY    30  29  96 NW3       30.00F                  
LEBANON        CLOUDY    30  28  92 CALM      29.99F                  
MT WASHINGTON  FRZ DRZL  25  25 100 S54         N/A  VSB 0   WCI   3  
$$

VTZ005-007-008-231000-
VERMONT
  
CITY           SKY/WX    TMP DP  RH WIND       PRES   REMARKS
ST JOHNSBURY     N/A     32  31  96 MISG      29.95F                  
MONTPELIER     CLOUDY    30  29  96 S9G22     29.95F                  
BURLINGTON     CLOUDY    36  32  85 S7        29.86S                  
$$

MAZ007-012-024-CTZ003-RIZ002-NYZ038-NYZ072-231000-
SOUTHERN NEW ENGLAND AND NY
  
CITY           SKY/WX    TMP DP  RH WIND       PRES   REMARKS
BOSTON         DRZL/FOG  34  33  96 N9        30.05F VSB 1            
WORCESTER      FOG       28  27  96 NE9       29.99F VSB 1/4          
NANTUCKET      FAIR      43  43 100 SE15      30.04F                  
PROVIDENCE     FOG       38  38 100 N6        30.03F VSB 1/4          
HARTFORD       FOG       34  34 100 N6        29.98F VSB 1/2          
ALBANY         CLOUDY    39  35  86 S8        29.89F                  
NEW YORK CITY  FOG       37  36  96 NE8       29.92F VSB 1/8          
$$

ANZ081-ANZ082-ANZ150-NHZ014-MEZ023>029-231000-
COASTAL MARINE OBSERVATIONS
  
STATION/POSITION TIME  TEMP    WIND        PRES    WAVE
                       AIR SEA DIR/SP/G            HT/PER
                 (UTC) (F)     (DEG/KT/KT) (MB)    (FT/S)
MOUNT DESERT ROC 0900   38      80/ 27/ 30 1020.7F
MATINICUS ROCK   0800   39     100/ 24/ 26 1020.1F
ISLE OF SHOALS   0800   28      10/  3/  4 1018.9F
JEFFREYS LEDGE   0836      43                N/A     6/ 7
GEORGES BANK BUO 0750   42 54              1027.2    3/ 9
$$

.............KEY..............
   WCI - WIND CHILL
   TC  - TEMPERATURE IN CELSIUS
   VSB - VISIBILITY IN MILES
   HX  - HEAT INDEX
   FAIR- INDICATES FEW OR NO CLOUDS BELOW 12,000 FT, WITH NO 
         SIGNIFICANT WEATHER AND/OR OBSTRUCTIONS TO VISIBILITY.